Skip Page Navigation
NASA JPL Caltech
NASA Logo - Jet Propulsion Laboratory + View the NASA Portal
+ Near-Earth Object (NEO) Program
Search JPL
JPL Home Earth Solar System Stars & Galaxies Technology
JPL Solar System Dynamics
BODIES ORBITS EPHEMERIDES TOOLS PHYSICAL DATA DISCOVERY FAQ SITE MAP
JPL Small-Body Database Browser
Search: [ help ]  
(2012 WH1)
Classification: Aten [NEO]          SPK-ID: 3618296
Ephemeris | Orbit Diagram | Orbital Elements | Physical Parameters | Close-Approach Data ]

[ hide orbit diagram ]
Orbit Diagram
Note: Make sure you have Java enabled on your browser to see the applet. This applet is provided as a 3D orbit visualization tool. The applet was implemented using 2-body methods, and hence should not be used for determining accurate long-term trajectories (over several years or decades) or planetary encounter circumstances. For accurate long-term ephemerides, please instead use our Horizons system.
Orbit Viewer

Additional Notes: the orbits shown in the applet are color coded. The planets are white lines, and the asteroid/comet is a blue line. The bright white line indicates the portion of the orbit that is above the ecliptic plane, and the darker portion is below the ecliptic plane. Likewise for the asteroid/comet orbit, the light blue indicates the portion above the ecliptic plane, and the dark blue the portion below the ecliptic plane.

Orbit Viewer applet originally written and kindly provided by Osamu Ajiki (AstroArts), and further modified by Ron Baalke (JPL).


Orbital Elements at Epoch 2456400.5 (2013-Apr-18.0) TDB
Reference: JPL 14 (heliocentric ecliptic J2000)
 Element Value Uncertainty (1-sigma)   Units 
e .3364284992930713 6.6991e-07  
a .8176846249227689 3.9643e-07 AU
q .5425922136649839 4.7531e-07 AU
i 4.613074672831025 2.313e-05 deg
node 64.08055984149945 1.6033e-05 deg
peri 147.009121480832 0.00013947 deg
M 69.41613380406473 0.00016324 deg
tp 2456348.424302541127
(2013-Feb-24.92430254)
0.00014842 JED
period 270.0705161441351
0.74
0.0001964
5.377e-07
d
yr
n 1.332985196384303 9.6938e-07 deg/d
Q 1.092777036180554 5.298e-07 AU
  Orbit Determination Parameters
   # obs. used (total)      96  
   # delay obs. used      1  
   # Doppler obs. used      1  
   data-arc span      13 days  
   first obs. used      2012-11-19  
   last obs. used      2012-12-02  
   planetary ephem.      DE405  
   SB-pert. ephem.      SB405-CPV-2  
   condition code      2  
   fit RMS      .29624  
   data source      ORB  
   producer      OSOD/JPL  
   solution date      2012-Dec-03 14:06:35  

Additional Information
 Earth MOID = .00678758 AU 
 T_jup = 7.108 
[ show covariance matrix ]

Ephemeris | Orbit Diagram | Orbital Elements | Physical Parameters | Close-Approach Data ]

Physical Parameter Table
Parameter Symbol Value Units Sigma Reference Notes
absolute magnitude H 23.886 mag .6608 11 autocmod 2.5b

[ show close-approach data ]
Ephemeris | Orbit Diagram | Orbital Elements | Physical Parameters | Close-Approach Data ]
ABOUT SSD CREDITS/AWARDS PRIVACY/COPYRIGHT GLOSSARY LINKS
FirstGov 2013-May-25 05:38 UT
(server date/time)  
NASA Home Page
Site Manager:   Donald K. Yeomans
Webmaster  Alan B. Chamberlin